Dewpoint
21 22 23 24 24 23 23 23 24 24 24 25 25 25 25 26 27 27 29 29 28 27 26 26 26 26 27 30 32 33 34 34 34 35 35 35 36 36 36 36 37 37 37 37 37 38 38 38 38 38 38 39 39 39 40 40 40 41 41 41 41 42 42 42 42 42 42 43 43 43 42 42 42 43 43 43 43 43 43 43 43 44 44 45 46 46
22 23 23 23 23 23 23 23 24 24 24 25 25 26 25 25 26 26 28 28 28 27 26 26 26 26 26 28 31 33 34 34 34 35 35 35 36 36 36 36 37 37 37 37 37 37 37 38 38 38 38 38 38 38 39 39 39 39 40 40 40 40 41 41 41 41 41 42 42 41 41 41 42 42 43 43 43 43 43 43 43 44 44 45 46 46
23 23 23 23 23 23 23 23 24 24 25 25 26 26 25 25 26 26 27 27 28 28 27 27 27 26 26 28 30 33 34 34 34 35 35 35 36 36 36 36 36 36 37 37 37 37 37 37 37 38 38 38 38 38 38 38 38 38 39 39 39 39 39 40 40 40 40 40 40 40 40 41 41 42 42 43 43 43 43 43 43 44 44 45 45 45
24 23 23 23 23 23 24 24 24 25 26 26 26 26 26 26 26 26 27 27 27 28 29 29 29 28 27 28 29 32 34 34 34 35 35 35 35 36 36 36 36 36 36 36 37 37 37 37 37 37 37 37 38 38 38 38 38 38 38 38 38 38 38 38 39 39 39 39 39 40 40 40 41 41 42 42 43 43 43 43 43 44 44 45 45 45
24 24 23 23 23 23 24 24 25 26 27 27 27 27 26 27 27 27 27 27 28 29 29 29 29 29 28 28 29 31 33 34 34 35 35 35 35 35 36 36 36 36 36 36 36 37 37 37 37 37 37 37 37 37 37 38 38 38 38 38 38 38 38 38 38 38 39 39 39 39 40 40 40 41 41 42 42 43 43 43 43 44 44 45 45 45
24 24 24 24 24 24 24 25 25 26 27 27 27 28 28 29 29 28 28 27 27 27 28 29 29 29 29 29 29 31 33 34 34 34 35 35 35 35 35 36 36 36 36 36 36 36 36 37 37 37 37 37 37 37 37 37 37 37 37 38 38 38 38 38 38 38 38 38 39 39 39 39 40 40 40 41 41 42 42 43 43 43 44 44 45 45
24 24 24 24 24 25 25 25 25 26 26 26 26 27 28 29 29 29 29 29 28 28 28 28 29 29 29 30 31 32 33 33 34 34 34 35 35 35 35 35 35 35 36 36 36 36 36 36 37 37 37 37 37 37 37 37 37 37 37 38 38 38 38 38 38 38 38 38 38 38 39 39 39 39 39 40 40 41 41 42 42 43 43 44 44 44
24 24 25 25 25 25 25 25 26 27 27 27 27 27 27 27 28 29 30 30 30 29 29 29 29 29 29 31 33 33 32 31 31 31 32 33 34 34 34 34 35 35 35 35 36 36 36 36 36 37 37 37 37 37 37 37 37 37 37 37 38 38 38 38 38 38 38 38 38 38 38 39 39 39 39 39 39 40 40 41 41 42 42 43 43 44
25 25 25 25 26 26 25 26 26 28 28 28 28 27 28 28 28 28 29 29 30 30 29 29 29 29 29 30 31 32 30 29 29 29 29 30 31 32 33 34 34 35 35 35 35 36 36 36 36 36 37 37 37 37 37 37 37 37 37 37 37 38 38 38 38 38 38 38 38 38 39 39 39 39 39 39 39 39 39 40 40 41 41 42 42 43
26 26 26 26 26 26 26 26 26 28 29 29 29 29 28 28 28 27 27 28 28 28 28 28 28 28 28 29 30 30 30 31 31 32 33 32 32 33 34 34 34 34 35 35 35 36 36 36 36 36 36 36 37 37 37 37 37 37 37 37 37 37 38 38 38 38 38 38 38 38 39 39 39 39 39 39 39 39 39 39 39 39 40 41 41 42
26 26 26 26 26 26 26 26 26 28 29 29 28 28 28 28 27 27 26 26 27 27 27 28 28 28 28 29 30 31 31 31 32 33 34 34 34 34 34 34 34 34 35 35 35 35 36 36 36 36 36 36 36 36 36 36 36 36 36 37 37 37 37 38 38 38 38 38 38 38 38 38 38 39 39 38 38 38 38 38 38 38 39 39 40 41
26 26 26 25 25 25 25 26 26 27 28 27 26 26 26 27 28 28 27 27 27 27 27 28 29 29 29 29 30 31 31 30 30 31 32 32 33 33 33 33 33 34 34 34 35 35 35 35 36 36 35 35 35 36 36 36 36 36 36 36 37 37 37 37 38 38 38 38 38 38 38 38 38 38 38 38 38 38 38 38 38 38 38 39 39 40
26 25 25 25 25 25 25 25 25 26 26 26 25 25 26 27 28 29 29 28 28 28 28 28 29 29 30 30 30 30 30 30 30 30 30 30 30 30 30 30 31 31 32 32 32 33 34 35 35 35 34 34 34 35 35 35 35 36 36 36 36 37 37 37 37 37 38 38 38 38 38 38 38 38 38 38 38 38 38 38 38 38 38 38 39 39
25 25 25 25 25 25 25 25 25 25 25 26 26 26 27 27 28 28 29 29 29 29 29 29 29 29 29 29 30 30 30 30 29 29 29 29 30 30 30 30 30 30 31 31 31 32 33 34 33 33 34 34 34 34 34 34 35 35 35 36 36 36 36 36 37 37 37 37 37 37 37 37 38 38 38 38 38 38 38 38 38 38 38 38 38 39
26 25 25 25 25 25 25 25 26 26 26 26 27 27 27 28 28 28 29 29 29 29 29 29 29 29 29 29 29 29 29 29 28 28 28 28 29 31 32 31 31 31 31 31 31 31 33 33 32 31 32 32 33 33 34 34 34 35 35 35 35 35 35 36 36 36 36 36 37 37 37 37 37 37 37 37 37 37 38 38 38 38 38 38 38 38
26 26 25 25 25 25 25 26 26 26 27 27 27 28 28 28 29 29 30 30 30 30 29 29 28 28 27 27 27 28 28 28 27 27 27 28 29 30 31 30 30 30 30 30 30 30 31 31 31 30 30 32 33 34 34 34 34 35 34 34 34 35 35 35 35 35 35 36 36 36 36 36 36 36 37 37 37 37 37 37 37 37 37 38 38 38
26 26 26 26 26 26 26 26 27 27 27 27 28 28 29 29 30 31 31 31 30 30 29 28 27 26 25 25 26 27 27 27 27 27 27 27 27 29 30 30 29 29 29 29 29 29 30 30 30 30 30 32 33 34 34 34 34 34 34 34 34 34 34 35 35 35 35 35 36 36 36 36 36 36 36 36 36 36 36 36 37 37 37 37 37 37
27 27 27 26 26 26 26 27 27 27 27 28 29 29 29 29 30 31 32 31 30 29 28 27 26 26 25 25 25 26 27 27 27 28 27 27 27 29 30 29 29 28 28 29 29 30 31 31 32 33 33 34 34 34 34 34 34 34 34 34 34 34 35 35 35 35 35 36 36 36 36 36 36 36 36 36 36 36 36 36 36 36 36 36 37 37
27 27 27 27 27 27 28 28 28 28 29 29 29 29 29 30 30 31 32 31 30 29 28 28 27 26 25 25 25 26 27 27 28 29 28 27 27 27 28 28 28 28 29 29 30 31 32 33 34 34 35 35 35 35 35 35 35 35 35 35 35 35 35 35 35 36 36 36 36 36 36 36 36 36 36 36 36 36 36 36 36 36 36 36 36 37
28 28 27 28 28 28 28 28 28 28 29 29 30 30 30 30 30 30 30 30 29 29 29 28 27 26 26 26 26 27 28 29 29 29 28 27 27 27 27 27 27 27 27 28 29 29 29 32 33 34 34 34 34 34 35 35 35 35 35 36 36 36 36 36 36 36 36 36 36 36 36 36 36 36 36 36 36 36 36 36 36 36 36 37 37 37
29 28 29 29 29 29 29 29 29 29 30 31 32 32 31 30 29 29 29 29 29 29 28 28 27 27 28 28 29 29 30 30 30 29 28 27 27 26 26 27 27 27 27 27 28 28 29 30 31 31 32 33 33 34 34 34 34 35 35 35 36 36 36 36 36 36 36 37 37 37 37 37 37 37 37 37 37 37 37 37 37 37 37 37 37 37
29 29 29 30 30 31 31 31 31 31 32 33 33 32 31 30 29 29 29 29 29 29 29 29 29 30 31 31 31 31 32 32 31 29 29 28 27 26 26 26 26 26 26 26 27 27 28 29 29 29 30 32 32 33 33 33 34 34 34 34 34 35 35 35 35 36 36 36 36 37 37 37 37 37 37 37 37 37 37 37 37 37 37 37 37 37
30 30 30 31 31 32 33 33 33 34 34 34 34 33 32 32 32 31 31 31 31 31 30 31 31 32 32 31 31 30 29 29 29 29 28 26 25 25 25 25 25 25 25 25 25 26 27 27 27 28 29 31 32 32 33 33 33 33 34 34 34 34 34 34 35 35 35 35 36 36 36 36 37 37 37 37 37 37 37 37 37 37 37 37 37 37
32 32 32 33 34 34 34 34 35 35 36 36 36 35 35 35 34 34 34 34 33 32 31 30 29 28 27 27 26 26 25 26 26 26 25 25 24 24 25 25 25 24 24 25 25 26 27 26 26 27 29 30 31 32 32 33 33 33 33 33 34 34 34 34 34 34 34 35 35 35 35 36 36 36 36 37 37 37 37 37 37 37 37 37 37 37
34 34 35 35 36 36 36 36 35 35 35 35 36 36 36 36 36 35 34 33 31 29 27 26 25 24 23 24 24 23 24 25 25 25 24 24 24 24 24 25 25 24 25 25 25 25 25 25 26 26 27 29 30 31 32 32 33 33 33 33 34 34 34 34 34 34 34 34 35 35 35 35 35 36 36 36 36 36 37 37 37 37 37 37 37 37
38 38 38 37 36 35 34 34 34 34 35 36 37 36 36 35 33 31 29 28 26 25 25 24 23 22 22 22 23 23 23 25 25 25 24 24 24 24 25 25 25 25 25 25 25 25 25 25 25 26 26 27 29 31 31 32 32 33 33 33 34 34 34 34 34 34 34 34 35 35 35 35 35 35 35 35 36 36 36 36 36 36 36 36 36 36
37 35 34 34 34 34 34 34 35 36 37 37 37 36 34 32 30 28 26 25 24 24 24 23 22 22 22 22 22 22 23 24 24 24 25 24 24 24 24 25 25 25 25 25 25 25 26 26 26 26 26 26 27 29 31 31 32 32 33 33 33 34 34 34 34 34 34 34 35 35 35 35 35 35 35 35 35 35 35 36 36 36 36 36 36 35
34 33 33 33 34 34 35 35 36 36 36 35 35 34 32 29 27 26 25 24 24 24 24 23 22 21 21 21 21 22 22 23 24 24 24 24 24 24 24 25 25 25 25 25 25 26 27 26 26 26 26 26 27 28 30 31 32 32 32 33 33 33 34 34 34 34 34 34 34 35 35 35 35 35 35 35 35 35 35 35 35 35 35 35 34 34
33 33 33 34 34 34 34 34 34 33 33 33 32 31 30 28 26 25 25 25 25 24 24 23 22 22 21 21 21 22 22 22 23 24 24 24 24 24 25 25 25 25 25 25 25 25 25 25 25 25 25 26 26 27 28 29 30 31 32 32 33 33 33 34 34 34 34 34 34 34 35 35 35 35 35 35 35 35 35 35 35 35 35 34 34 34
32 32 32 33 32 32 31 29 29 29 30 31 30 30 29 27 26 25 25 25 25 24 23 23 22 22 22 22 22 21 21 21 22 23 25 25 25 25 25 25 25 25 25 25 25 24 23 23 24 24 25 26 26 26 26 28 29 29 30 31 31 32 33 33 33 34 34 34 34 34 34 35 35 35 35 35 35 35 35 35 35 35 34 34 34 34
30 30 29 29 28 27 27 26 26 27 28 28 28 28 27 26 25 25 25 25 25 24 24 23 23 23 23 22 21 20 20 20 22 24 26 25 25 25 25 25 26 26 27 26 25 24 22 22 23 24 25 26 26 27 28 28 28 28 29 29 30 31 32 33 33 33 34 34 34 34 34 34 34 35 35 35 35 35 35 35 35 35 34 34 34 34
28 27 26 25 25 25 25 25 24 25 25 25 25 25 25 25 25 25 25 25 25 25 25 25 24 24 24 23 23 22 21 22 24 25 28 27 26 26 27 27 27 27 28 28 28 26 24 24 24 25 26 26 27 28 29 29 29 29 29 29 29 30 32 33 33 33 33 34 34 34 34 34 34 34 35 35 35 35 35 36 36 35 34 34 34 35
26 25 24 24 24 23 23 23 23 23 23 23 24 24 25 25 25 26 26 26 26 26 26 26 25 25 25 24 24 23 23 23 25 26 29 29 28 27 27 27 27 27 28 28 28 28 26 26 26 26 27 27 28 28 28 29 29 29 30 30 30 30 32 33 33 33 34 34 34 34 34 34 34 34 35 35 35 35 35 36 36 36 35 36 36 36
24 24 23 23 23 22 23 23 23 23 23 23 24 24 24 25 25 26 26 27 27 28 28 27 26 25 25 24 24 23 23 23 25 27 29 29 29 28 28 27 27 27 27 27 27 27 27 27 27 26 26 26 26 27 27 28 29 30 31 32 32 33 34 34 34 34 34 34 34 34 34 34 34 34 34 35 35 35 35 36 36 36 36 37 37 37
22 22 22 22 22 22 22 22 23 23 23 23 24 25 25 25 25 26 26 27 27 27 27 27 27 26 26 25 24 24 23 24 25 28 31 31 30 29 28 28 27 27 27 27 27 27 26 25 25 25 24 24 24 25 25 27 29 30 32 34 34 34 34 34 34 34 34 34 34 33 33 33 33 34 34 34 34 35 35 36 36 36 37 37 38 38
21 21 21 21 21 21 22 22 22 23 23 23 24 24 25 25 25 25 25 26 26 26 27 27 27 27 27 27 26 25 25 26 28 30 32 32 32 30 29 28 28 28 28 28 27 25 24 23 23 23 23 23 23 23 24 26 28 30 32 32 33 33 33 33 34 33 33 33 33 32 32 32 33 33 34 34 35 35 36 36 36 37 37 37 38 38
20 20 21 21 21 21 21 21 22 22 23 23 23 24 24 25 25 25 25 26 26 26 26 27 28 28 29 29 29 28 28 29 31 32 34 33 32 31 29 28 29 29 29 27 26 24 23 23 22 22 22 22 22 22 24 25 27 28 28 29 29 29 30 30 31 31 30 30 30 30 31 32 33 34 34 34 34 35 35 36 36 36 36 37 37 38
20 20 20 20 20 20 21 21 21 22 22 23 23 23 24 24 25 25 25 26 27 27 27 27 28 29 30 31 31 32 32 32 33 32 32 32 31 30 29 29 29 29 29 27 26 25 24 23 22 22 21 21 22 23 24 25 25 25 25 26 27 27 27 28 28 29 28 28 29 29 29 30 30 31 32 32 33 34 34 34 34 35 35 36 36 36
20 20 20 20 20 20 21 21 21 22 22 22 23 23 24 25 25 26 26 27 27 28 28 29 29 30 31 31 32 32 31 30 30 30 30 30 30 31 30 29 29 28 28 27 27 26 25 24 23 22 21 21 22 23 24 24 25 25 25 25 25 25 26 26 27 27 27 27 27 27 28 28 28 29 30 31 32 32 32 33 34 34 34 35 35 35
20 20 20 20 21 21 21 21 22 22 22 22 23 24 24 25 25 26 27 27 28 29 29 29 29 29 29 29 29 29 29 29 29 29 29 30 30 30 30 29 28 27 27 27 27 27 26 25 24 24 24 23 23 23 24 24 24 25 25 25 24 24 25 25 26 26 27 26 26 26 26 27 27 28 29 29 29 30 30 31 31 32 33 33 33 33
20 20 20 20 21 21 21 22 22 22 22 22 23 24 24 25 25 25 25 26 27 27 27 27 27 26 26 27 27 27 27 28 28 29 29 29 29 29 29 28 27 27 27 27 27 26 26 25 25 25 24 24 24 24 24 24 25 25 26 25 24 24 25 26 26 26 26 25 25 26 26 26 26 27 27 27 28 28 28 29 29 30 30 31 31 31
20 20 20 20 20 20 20 21 22 23 23 23 23 23 24 24 24 24 25 25 25 25 25 25 25 25 24 24 25 25 26 26 27 28 29 28 28 28 28 27 27 27 27 26 26 25 25 25 25 25 25 25 25 24 23 24 25 25 25 25 25 25 25 25 25 24 25 25 25 25 26 26 26 26 26 27 27 27 28 29 29 29 29 29 30 30
20 20 20 20 20 20 21 22 22 22 22 22 22 22 23 23 24 25 25 25 25 25 25 24 24 24 23 22 22 23 23 25 25 26 27 27 27 28 28 28 27 27 26 25 25 24 25 25 25 25 25 25 25 25 24 24 24 24 24 25 25 24 22 22 22 23 23 24 25 25 25 25 26 26 26 27 27 27 28 29 29 29 29 29 29 29
19 19 20 20 20 20 21 21 21 20 20 21 21 22 22 23 24 25 25 25 25 25 24 24 23 23 22 21 21 21 21 22 23 25 25 27 28 28 27 27 26 26 26 25 25 24 24 24 24 24 25 25 25 25 25 24 24 24 24 24 24 24 22 22 22 23 23 24 24 25 25 25 26 26 26 27 27 27 27 27 27 28 28 28 29 29
19 19 20 20 20 20 20 20 20 20 20 20 21 21 22 24 25 25 25 25 25 24 24 23 23 22 21 20 20 20 20 20 21 22 23 25 26 26 26 25 25 25 25 25 25 25 24 24 24 24 25 25 25 25 25 24 24 24 24 24 23 22 21 22 22 22 22 22 23 24 25 26 26 26 26 25 25 25 26 26 26 26 27 27 27 28
19 19 19 19 19 19 19 19 19 19 20 20 20 21 22 23 24 25 25 25 24 24 23 23 22 21 20 20 20 20 20 20 20 21 22 23 23 24 25 25 25 25 25 25 25 25 25 25 24 24 24 25 24 24 24 24 24 23 23 22 21 20 20 20 21 21 21 22 23 24 25 26 26 26 25 25 24 25 25 25 25 26 26 26 27 27
18 18 18 18 18 18 18 18 19 19 19 20 20 20 21 23 24 24 25 24 24 23 23 22 22 21 21 20 20 20 20 20 20 21 21 21 22 22 23 23 24 25 25 24 25 25 25 25 25 25 24 24 23 23 23 24 24 23 22 21 20 20 20 20 20 20 21 21 22 24 25 26 25 25 24 24 24 24 24 25 25 25 26 26 26 27
18 18 18 17 17 17 17 18 18 18 19 19 19 20 21 22 23 24 23 23 23 23 22 22 21 21 20 20 20 20 21 21 21 21 21 21 21 21 21 22 22 23 23 24 24 24 24 24 25 25 24 23 23 23 23 24 23 22 21 21 20 20 19 19 19 20 20 21 22 24 25 25 25 24 24 24 23 23 23 24 24 25 26 26 27 27
17 17 17 17 17 17 17 17 18 18 18 19 19 20 20 22 23 23 22 22 22 22 21 21 21 21 20 20 20 21 21 21 21 20 20 20 20 20 21 21 21 21 21 22 22 22 22 23 24 24 24 24 24 24 23 23 22 22 21 21 20 20 19 19 19 20 20 21 22 23 24 24 24 25 25 24 23 23 23 23 24 24 25 26 26 27
16 16 16 17 17 17 17 17 17 18 18 19 19 20 20 21 21 21 21 21 21 21 21 21 21 21 20 20 20 21 21 21 20 20 20 20 20 20 21 21 21 20 20 20 20 20 20 20 21 22 24 25 24 23 22 21 21 21 21 20 20 20 19 19 19 20 20 20 21 22 23 23 24 24 24 24 23 23 23 22 23 23 24 25 26 27
16 16 16 16 16 16 17 17 17 18 18 19 20 20 20 20 20 20 20 20 21 21 21 21 21 21 20 20 20 21 21 20 20 20 20 20 20 21 21 21 20 20 19 19 18 18 17 16 17 18 20 21 22 22 21 21 21 20 20 20 20 20 20 19 19 20 20 20 21 21 22 22 22 22 23 23 23 22 21 21 22 22 23 24 25 26